Location: Newark
(25.4297°S, 49.2719°W)
Time: 00:50:40
(UTC+00:00)

Tiangong - Pass Details

Date: 25 June 2021
Orbit: 373 x 386 km, 41.5° (Epoch: 02 August)

Event Time Altitude Azimuth Distance (km) Brightness Sun altitude
Rises 21:52:29 0° 232° (SW) 2,261 5.4 -16.7°
Reaches altitude 10° 21:54:35 10° 228° (SW) 1,401 4.3 -17.2°
Maximum altitude 21:57:43 64° 145° (SE) 423 1.0 -17.8°
Enters shadow 21:57:49 63° 133° (SE) 425 0.9 -17.9°
